"TOA5","AWS1","CR1000","7964","CR1000.Std.14","CPU:AWS1_114.CR1","64363","TBL110"
"TIMESTAMP","RECORD","Wind_spd_WVc(1)","Wind_spd_WVc(2)","Air_Temp_Avg","Humidity_Avg","SW_upper_Wm2_Avg","Rain_Tot","Press_Avg","Issui_Tot","Depth_cm","SR50A_Raw","Quality","Ground_Temp_Avg(1)","Ground_Temp_Avg(2)","SW_lower_Wm2_Avg","Albedo_Avg","SWC_per(1)","SWC_per(2)","Period(1)","Period(2)"
"TS","RN","","","","","","","","","","","","","","","","","","",""
"","","WVc","WVc","Avg","Avg","Avg","Tot","Avg","Tot","Smp","Smp","Smp","Avg","Avg","Avg","Avg","Smp","Smp","Smp","Smp"
"2016-02-02 00:00:00",220669,0.35,104.6,-7.101,98.7,0,0,862.7637,0,31.7,2.901,194,1.307,1.889,0,0,51.99,60.33,33.79,35.75
"2016-02-02 00:10:00",220670,0.822,33.56,-7.122,98.6,0,0,862.6077,0,31.7,2.901,196,1.332,1.892,0,0,51.94,60.33,33.77,35.75
"2016-02-02 00:20:00",220671,1.148,41.55,-7.109,98.7,0,0,862.3569,0,31.52,2.903,197,1.307,1.901,0,0,51.94,60.33,33.77,35.75
"2016-02-02 00:30:00",220672,1.189,25.4,-7.214,98.2,0,0,862.2599,0,31.69,2.902,197,1.307,1.921,0,0,51.94,60.33,33.77,35.75
"2016-02-02 00:40:00",220673,0.308,352.3,-7.316,98,0,0,862.0323,0,31.61,2.903,197,1.289,1.93,0,0,51.94,60.33,33.77,35.75
"2016-02-02 00:50:00",220674,0.225,117.7,-7.375,98.1,0,0,861.9944,0,31.64,2.903,192,1.316,1.926,0,0,51.94,60.33,33.77,35.75
"2016-02-02 01:00:00",220675,0.117,110.6,-7.46,97.4,0,0,861.8342,0,31.73,2.903,204,1.289,1.931,0,0,51.94,60.33,33.77,35.75
"2016-02-02 01:10:00",220676,0.104,324.4,-7.584,97.3,0,0,861.9755,0,31.73,2.903,198,1.285,1.931,0.1023875,0,51.94,60.33,33.77,35.75
"2016-02-02 01:20:00",220677,0.045,326.1,-7.52,97.7,0,0,862.0261,0,31.65,2.904,198,1.284,1.931,0.4474714,0,51.94,60.27,33.77,35.74
"2016-02-02 01:30:00",220678,0.101,54.24,-7.526,97.7,0,0,862.241,0,31.65,2.904,199,1.283,1.931,0.2275278,0,51.94,60.33,33.77,35.75
"2016-02-02 01:40:00",220679,0.266,332.2,-7.538,97.7,0,0,862.2663,0,31.56,2.905,198,1.283,1.931,0.1630616,0,51.94,60.33,33.77,35.75
"2016-02-02 01:50:00",220680,0.303,10.82,-7.652,97.3,0,0,862.0387,0,31.65,2.905,201,1.284,1.931,0.02654491,0,51.94,60.27,33.77,35.74
"2016-02-02 02:00:00",220681,0.26,214.1,-7.737,97.3,0,0,862.0261,0,31.72,2.904,193,1.285,1.931,0,0,51.94,60.27,33.77,35.74
"2016-02-02 02:10:00",220682,0.715,33.37,-7.761,97.2,0,0,861.8763,0,31.65,2.905,197,1.283,1.931,0,0,51.94,60.27,33.77,35.74
"2016-02-02 02:20:00",220683,0.757,319.4,-7.783,97.3,0,0,861.7963,0,31.65,2.905,203,1.284,1.931,0,0,51.94,60.27,33.77,35.74
"2016-02-02 02:30:00",220684,0.307,286.2,-7.767,97.4,0,0,861.7794,0,31.77,2.904,208,1.291,1.931,0.00379213,0,51.94,60.27,33.77,35.74
"2016-02-02 02:40:00",220685,0.217,53.46,-7.782,97.3,0,0,861.7415,0,31.77,2.904,205,1.308,1.931,0.1933987,0,51.94,60.27,33.77,35.74
"2016-02-02 02:50:00",220686,0.018,311.7,-7.842,96.9,0,0,861.6677,0,31.74,2.905,208,1.313,1.93,0.00379213,0,51.88,60.27,33.76,35.74
"2016-02-02 03:00:00",220687,0.198,176.4,-7.922,96.8,0,0,861.9501,0,31.77,2.905,209,1.32,1.931,0,0,51.99,60.27,33.79,35.74
"2016-02-02 03:10:00",220688,0.161,323.7,-8.03,96.4,0,0,861.7267,0,31.81,2.905,211,1.326,1.931,0,0,51.94,60.27,33.77,35.74
"2016-02-02 03:20:00",220689,0.217,48.66,-8.12,96.3,0,0,861.7731,0,31.76,2.906,198,1.326,1.931,0.02275278,0,51.94,60.27,33.77,35.74
"2016-02-02 03:30:00",220690,0.43,73.57,-8.33,95.4,0,0,861.636,0,31.77,2.908,193,1.326,1.93,0,0,51.88,60.27,33.76,35.74
"2016-02-02 03:40:00",220691,0.478,52.76,-8.59,95.2,0,0,861.5813,0,32.19,2.904,232,1.326,1.928,0,0,51.94,60.27,33.77,35.74
"2016-02-02 03:50:00",220692,1.253,33.75,-8.39,96.7,0,0,861.4401,0,31.9,2.905,219,1.326,1.928,0.2009829,0,51.94,60.27,33.77,35.74
"2016-02-02 04:00:00",220693,0.689,33.31,-8.29,96.3,0,0,861.5202,0,31.82,2.907,206,1.326,1.92,0.06825834,0,51.94,60.27,33.77,35.74
"2016-02-02 04:10:00",220694,0.269,17,-8.59,95.2,0,0,861.7099,0,31.7,2.909,202,1.326,1.877,0.08342686,0,51.88,60.27,33.76,35.74
"2016-02-02 04:20:00",220695,0.051,358,-8.57,96,0,0,861.7731,0,31.77,2.908,207,1.326,1.883,0.1327246,0,51.94,60.27,33.77,35.74
"2016-02-02 04:30:00",220696,0.079,162.1,-8.56,95.9,0,0,861.7689,0,32.07,2.905,228,1.325,1.887,0.1820223,0,51.94,60.27,33.77,35.74
"2016-02-02 04:40:00",220697,0.439,80.1,-8.48,96.2,0,0,861.5897,0,31.6,2.909,215,1.326,1.885,0.2464885,0,51.94,60.27,33.77,35.74
"2016-02-02 04:50:00",220698,0.498,43.49,-8.39,96.3,0,0,861.6213,0,31.65,2.909,205,1.326,1.883,0.204775,0,51.88,60.27,33.76,35.74
"2016-02-02 05:00:00",220699,0.553,323.1,-8.54,95.7,0,0,861.6003,0,31.74,2.909,209,1.326,1.893,0,0,51.88,60.27,33.76,35.74
"2016-02-02 05:10:00",220700,0.602,19.92,-8.61,95.6,0,0,861.5433,0,31.65,2.91,198,1.326,1.89,0.1137639,0,51.94,60.27,33.77,35.74
"2016-02-02 05:20:00",220701,0.736,204.1,-8.67,95.6,0,0,861.518,0,32.04,2.905,209,1.326,1.862,0.04171343,0,51.94,60.27,33.77,35.74
"2016-02-02 05:30:00",220702,0.822,221.1,-8.22,96.5,0,0,861.634,0,31.96,2.904,195,1.326,1.85,0.496769,0,51.94,60.27,33.77,35.74
"2016-02-02 05:40:00",220703,0.448,320.5,-8.37,94.8,0,0,861.7731,0,31.69,2.91,216,1.326,1.858,0.04171343,0,51.94,60.27,33.77,35.74
"2016-02-02 05:50:00",220704,0.472,341.4,-8.96,93.9,0,0,861.8704,0,31.71,2.911,206,1.327,1.865,0,0,51.88,60.27,33.76,35.74
"2016-02-02 06:00:00",220705,0.63,287.8,-8.87,95.4,0,0,862.0495,0,31.58,2.912,197,1.305,1.869,0.08722245,0,51.88,60.27,33.76,35.74
"2016-02-02 06:10:00",220706,0.191,344.8,-9.01,94.5,0,0,862.3351,0,31.71,2.912,216,1.31,1.898,0,0,51.88,60.27,33.76,35.74
"2016-02-02 06:20:00",220707,0.059,116.4,-9.25,94.1,0,0,862.2058,0,31.63,2.914,211,1.307,1.917,0,0,51.94,60.21,33.77,35.73
"2016-02-02 06:30:00",220708,0.227,192.3,-9.02,95.6,0,0,862.288,0.5,32.06,2.906,197,1.274,1.931,0.1896424,0,51.94,60.21,33.77,35.73
"2016-02-02 06:40:00",220709,0.763,223.8,-8.58,95.7,0,0,862.4261,0,31.71,2.91,219,1.261,1.948,0.6789362,0,51.94,60.27,33.77,35.74
"2016-02-02 06:50:00",220710,0.455,351.2,-9.04,93.7,0,0,862.6116,0,31.5,2.914,206,1.278,1.933,0.6789416,0,51.94,60.21,33.77,35.73
"2016-02-02 07:00:00",220711,0.023,356,-9.18,94.1,0.09834918,0,862.6205,0,31.64,2.914,204,1.274,1.948,2.165843,4.773,51.88,60.21,33.76,35.73
"2016-02-02 07:10:00",220712,0.07,94.9,-9.55,93,0.8969539,0,862.6144,0,31.62,2.917,221,1.273,1.933,3.887954,5.71,51.88,60.21,33.76,35.73
"2016-02-02 07:20:00",220713,0.093,306.8,-9.89,93,1.192037,0,862.6491,0,31.59,2.918,197,1.265,1.895,6.129873,5.268,51.88,60.21,33.76,35.73
"2016-02-02 07:30:00",220714,0.338,338.5,-9.7,94.6,2.258248,0,862.8242,0,31.63,2.914,198,1.274,1.929,11.24348,5.065,51.94,60.21,33.77,35.73
"2016-02-02 07:40:00",220715,0.225,323.3,-9.36,94.4,4.457495,0,862.8826,0,31.67,2.914,187,1.274,1.899,14.24406,3.263,51.88,60.21,33.76,35.73
"2016-02-02 07:50:00",220716,0.168,314.6,-9.37,94.1,12.27098,0,863.1177,0,31.52,2.917,201,1.262,1.92,29.27732,2.471,51.88,60.21,33.76,35.73
"2016-02-02 08:00:00",220717,0.103,57.41,-9.4,94.8,25.62014,0,863.1235,0,31.58,2.913,189,1.292,1.95,52.038,2.048,51.88,60.21,33.76,35.73
"2016-02-02 08:10:00",220718,0.375,78.27,-8.81,96,25.35658,0,863.1312,0,31.75,2.909,201,1.38,1.936,51.05558,2.026,51.88,60.21,33.76,35.73
"2016-02-02 08:20:00",220719,0.624,50.14,-8.61,95.7,20.91806,0,863.1279,0,31.61,2.91,203,1.399,1.918,42.35222,2.044,51.88,60.21,33.76,35.73
"2016-02-02 08:30:00",220720,0.514,3.377,-8.53,95.7,26.27203,0,863.1221,0,31.32,2.912,194,1.402,1.92,58.0479,2.194,51.88,60.21,33.76,35.73
"2016-02-02 08:40:00",220721,0.425,335.7,-8.3,96.4,33.03359,0,863.2927,0,31.48,2.909,193,1.393,1.934,73.73032,2.253,51.94,60.21,33.77,35.73
"2016-02-02 08:50:00",220722,0.51,10.96,-8.09,96.4,46.03745,0,863.3253,0,31.76,2.905,197,1.364,1.963,105.899,2.303,51.88,60.21,33.76,35.73
"2016-02-02 09:00:00",220723,0.272,339,-7.774,97.2,54.02187,0,863.2989,0,31.47,2.906,194,1.299,1.962,103.5035,1.92,51.88,60.21,33.76,35.73
"2016-02-02 09:10:00",220724,0.184,12.57,-7.533,97.4,45.00328,0,863.2963,0,31.11,2.909,186,1.257,1.906,80.92813,1.791,51.88,60.21,33.76,35.73
"2016-02-02 09:20:00",220725,0.173,112.7,-7.459,97.3,58.97184,0,863.2921,0,31.46,2.905,181,1.274,1.866,106.6325,1.806,51.88,60.21,33.76,35.73
"2016-02-02 09:30:00",220726,0.08,75.05,-7.191,98.2,82.44727,0,863.291,0,31.89,2.899,192,1.305,1.848,150.9845,1.827,51.94,60.21,33.77,35.73
"2016-02-02 09:40:00",220727,0.372,250.2,-6.853,99,75.56035,0,863.3498,0,31.74,2.898,192,1.266,1.891,151.3935,2.008,51.88,60.21,33.76,35.73
"2016-02-02 09:50:00",220728,0.536,319.5,-6.766,97.7,67.70613,0,863.3604,0,31.78,2.899,193,1.272,1.944,131.7463,1.949,51.88,60.21,33.76,35.73
"2016-02-02 10:00:00",220729,0.295,343.1,-6.774,98,40.6866,0,863.3604,0,31.81,2.898,192,1.29,1.933,91.73172,2.303,51.94,60.21,33.77,35.73
"2016-02-02 10:10:00",220730,0.457,95.7,-6.388,99.4,31.02714,0,863.2961,0,31.99,2.892,173,1.29,1.932,88.01899,2.845,51.88,60.15,33.76,35.71
"2016-02-02 10:20:00",220731,0.415,117,-5.991,99.4,29.32957,0,863.2489,0,31.97,2.893,179,1.304,1.91,89.1529,3.04,51.88,60.15,33.76,35.71
"2016-02-02 10:30:00",220732,0.439,295.5,-6.188,98.3,60.82158,0,863.2162,0,31.74,2.895,182,1.298,1.868,130.709,2.258,51.88,60.15,33.76,35.71
"2016-02-02 10:40:00",220733,0.405,241.5,-5.907,99.7,59.53135,0,863.1957,0,32.22,2.887,182,1.29,1.847,140.5928,2.306,51.88,60.15,33.76,35.71
"2016-02-02 10:50:00",220734,0.369,294.8,-5.252,100,105.7152,0,863.197,0,31.94,2.888,173,1.246,1.885,202.8546,1.915,51.88,60.21,33.76,35.73
"2016-02-02 11:00:00",220735,0.622,340.2,-5.255,99.7,110.3731,0,863.1984,0,31.78,2.891,177,1.278,1.862,197.9092,1.793,51.88,60.15,33.76,35.71
"2016-02-02 11:10:00",220736,0.356,343.9,-5.221,99.9,106.0244,0,863.017,0,31.9,2.887,173,1.296,1.849,195.399,1.844,51.88,60.15,33.76,35.71
"2016-02-02 11:20:00",220737,0.425,355.8,-5.006,100,87.38048,0,863.1603,0,31.75,2.889,190,1.292,1.845,163.9424,1.876,51.88,60.15,33.76,35.71
"2016-02-02 11:30:00",220738,0.508,4.581,-5.058,100,97.12697,0,863.1181,0,31.82,2.889,188,1.287,1.844,184.7844,1.903,51.88,60.15,33.76,35.71
"2016-02-02 11:40:00",220739,0.273,330.6,-5.037,100,103.6219,0,863.041,0,31.65,2.89,180,1.311,1.837,195.3986,1.886,51.88,60.15,33.76,35.71
"2016-02-02 11:50:00",220740,0.262,337.4,-5.035,100,123.2003,0,862.8893,0,31.76,2.889,176,1.34,1.838,225.7427,1.834,51.88,60.15,33.76,35.71
"2016-02-02 12:00:00",220741,0.523,339.9,-4.95,100,141.664,0,862.8671,0,31.88,2.887,171,1.304,1.845,262.4745,1.844,51.88,60.15,33.76,35.71
"2016-02-02 12:10:00",220742,0.419,309,-4.851,100,145.1593,0,862.7211,0,31.89,2.887,176,1.251,1.86,248.0305,1.716,51.88,60.15,33.76,35.71
"2016-02-02 12:20:00",220743,0.357,345.6,-4.866,100,138.021,0,862.6052,0,32.2,2.884,172,1.206,1.893,238.0186,1.727,51.88,60.15,33.76,35.71
"2016-02-02 12:30:00",220744,0.504,317,-4.732,100,146.2634,0,862.6046,0,31.71,2.888,172,1.198,1.881,237.4746,1.637,51.94,60.15,33.77,35.71
"2016-02-02 12:40:00",220745,0.655,301.1,-4.874,99,145.5469,0,862.6045,0,31.9,2.888,171,1.196,1.88,236.5631,1.647,51.88,60.15,33.76,35.71
"2016-02-02 12:50:00",220746,0.646,283.5,-4.931,99.8,169.9929,0,862.6045,0,31.81,2.887,174,1.195,1.884,267.7202,1.595,51.88,60.15,33.76,35.71
"2016-02-02 13:00:00",220747,0.622,329.4,-4.663,100,165.0956,0,862.5918,0,32.01,2.885,170,1.195,1.867,254.2557,1.56,51.88,60.15,33.76,35.71
"2016-02-02 13:10:00",220748,0.449,313.6,-4.738,99.9,141.3371,0,862.5645,0,31.86,2.887,171,1.195,1.856,218.3877,1.584,51.88,60.15,33.76,35.71
"2016-02-02 13:20:00",220749,0.962,12.81,-4.748,99.9,127.3728,0,862.3749,0,32.21,2.883,171,1.188,1.855,186.3262,1.528,51.88,60.15,33.76,35.71
"2016-02-02 13:30:00",220750,0.492,356.6,-4.581,99.8,172.8965,0,862.3517,0,32.21,2.882,176,1.175,1.839,225.9503,1.342,51.88,60.15,33.76,35.71
"2016-02-02 13:40:00",220751,0.679,9.14,-4.537,99.5,179.3295,0,862.3517,0,32.05,2.883,179,1.152,1.794,228.7635,1.332,51.88,60.15,33.76,35.71
"2016-02-02 13:50:00",220752,0.731,352.3,-4.894,97.2,122.2863,0,862.3343,0,32.38,2.883,180,1.128,1.746,159.0392,1.446,51.88,60.15,33.76,35.71
"2016-02-02 14:00:00",220753,0.457,297.1,-5.087,97.5,69.03741,0,862.3027,0,32.13,2.887,176,1.114,1.779,106.0133,1.548,51.88,60.15,33.76,35.71
"2016-02-02 14:10:00",220754,0.45,296.2,-5.211,97.3,193.8751,0,862.2966,0,32.1,2.885,179,1.109,1.795,166.8206,0.958,51.82,60.15,33.75,35.71
"2016-02-02 14:20:00",220755,0.655,277.8,-5.044,97,107.2605,0,862.2977,0,32.15,2.885,174,1.107,1.772,139.3663,1.448,51.82,60.15,33.75,35.71
"2016-02-02 14:30:00",220756,0.625,336.6,-4.896,97.4,59.37034,0,862.3026,0,32.15,2.884,183,1.107,1.796,109.7987,1.842,51.88,60.15,33.76,35.71
"2016-02-02 14:40:00",220757,0.668,312.1,-4.902,95.5,57.42941,0,862.3068,0,32.2,2.884,187,1.112,1.796,102.7033,1.79,51.88,60.15,33.76,35.71
"2016-02-02 14:50:00",220758,0.604,311.9,-5.01,93.5,37.39206,0,862.3438,0,32.38,2.884,191,1.157,1.798,68.60577,1.842,51.82,60.15,33.75,35.71
"2016-02-02 15:00:00",220759,0.639,325.2,-4.774,93.2,67.53676,0,862.3483,0,32.45,2.879,192,1.139,1.818,128.9368,1.923,51.88,60.15,33.76,35.71
"2016-02-02 15:10:00",220760,0.514,331.8,-4.632,87.9,41.29799,0,862.5414,0,32.1,2.884,182,1.201,1.852,76.28493,1.847,51.88,60.15,33.76,35.71
"2016-02-02 15:20:00",220761,0.925,255.6,-5.059,82.5,34.64392,0,862.6103,0,32.26,2.885,192,1.266,1.809,59.53108,1.708,51.88,60.15,33.76,35.71
"2016-02-02 15:30:00",220762,0.665,227.1,-5.286,78.02,19.13231,0,862.7032,0,32.32,2.886,191,1.263,1.788,32.24091,1.69,51.82,60.09,33.75,35.7
"2016-02-02 15:40:00",220763,0.783,256.9,-5.328,73.22,22.15098,0,862.8508,0,32.09,2.887,188,1.254,1.797,42.88983,1.941,51.82,60.15,33.75,35.71
"2016-02-02 15:50:00",220764,0.749,280.7,-5.14,68.99,21.34534,0,862.8529,0,31.95,2.887,192,1.239,1.798,42.14723,1.975,51.82,60.15,33.75,35.71
"2016-02-02 16:00:00",220765,1.545,295.3,-4.913,62.74,17.34434,0,862.8572,0,31.9,2.887,192,1.215,1.798,34.13618,1.978,51.82,60.09,33.75,35.7
"2016-02-02 16:10:00",220766,1.101,288.9,-4.967,60.44,15.60719,0,862.8529,0,31.87,2.888,187,1.195,1.819,34.23857,2.195,51.82,60.09,33.75,35.7
"2016-02-02 16:20:00",220767,1.158,305.2,-4.979,59.73,25.70508,0,862.8541,0,31.72,2.889,192,1.203,1.832,56.28828,2.195,51.82,60.09,33.75,35.7
"2016-02-02 16:30:00",220768,1.188,291.8,-4.793,64.05,24.21804,0,863.0587,0,31.73,2.888,182,1.232,1.833,48.33507,1.987,51.82,60.09,33.75,35.7
"2016-02-02 16:40:00",220769,1.098,290.8,-4.953,63.46,9.27785,0,863.3483,0,31.75,2.89,179,1.255,1.864,20.23379,2.231,51.82,60.09,33.75,35.7
"2016-02-02 16:50:00",220770,0.728,240,-5.321,65.94,7.631091,0,863.3442,0,31.71,2.892,183,1.202,1.879,20.50031,2.709,51.82,60.09,33.75,35.7
"2016-02-02 17:00:00",220771,0.862,259.3,-5.671,70.17,2.504421,0,863.4437,0,31.72,2.894,184,1.236,1.886,7.566438,3.758,51.82,60.09,33.75,35.7
"2016-02-02 17:10:00",220772,0.706,231.5,-5.89,69.45,0.1376064,0,863.4465,0,31.66,2.896,170,1.247,1.91,4.006903,8.32,51.82,60.09,33.75,35.7
"2016-02-02 17:20:00",220773,0.86,283.9,-6.133,68.38,0,0,863.453,0,31.65,2.897,184,1.197,1.861,1.812019,0,51.82,60.09,33.75,35.7
"2016-02-02 17:30:00",220774,0.821,256,-6.308,69.71,0,0,863.5184,0,31.67,2.897,188,1.197,1.829,0.4511095,0,51.82,60.09,33.75,35.7
"2016-02-02 17:40:00",220775,0.913,293.3,-6.383,68.99,0,0,863.6111,0,31.47,2.9,179,1.21,1.782,0.1061434,0,51.82,60.15,33.75,35.71
"2016-02-02 17:50:00",220776,0.763,274.4,-6.507,70.52,0,0,863.6638,0,31.64,2.899,187,1.238,1.759,0.03032669,0,51.82,60.09,33.75,35.7
"2016-02-02 18:00:00",220777,0.681,297.2,-6.645,71.07,0,0,863.7257,0,31.82,2.897,175,1.251,1.786,0.007582158,0,51.82,60.09,33.75,35.7
"2016-02-02 18:10:00",220778,0.546,286.8,-6.712,71.56,0,0,863.8093,0,31.93,2.897,172,1.273,1.833,0.007582646,0,51.82,60.09,33.75,35.7
"2016-02-02 18:20:00",220779,0.787,293.7,-6.758,71.53,0,0,863.9685,0,31.62,2.9,184,1.287,1.862,0.05308202,0,51.82,60.09,33.75,35.7
"2016-02-02 18:30:00",220780,0.696,296.7,-6.873,74.98,0,0,864.0446,0,31.75,2.9,179,1.293,1.906,0,0,51.82,60.09,33.75,35.7
"2016-02-02 18:40:00",220781,0.851,299.4,-7.103,78.21,0,0,864.0488,0,31.86,2.9,187,1.274,1.925,0,0,51.82,60.09,33.75,35.7
"2016-02-02 18:50:00",220782,0.537,279.7,-7.258,78.88,0,0,864.1843,0,31.76,2.902,183,1.286,1.929,0,0,51.82,60.09,33.75,35.7
"2016-02-02 19:00:00",220783,0.389,163.9,-7.593,80.7,0,0,864.197,0,31.57,2.906,187,1.287,1.931,0,0,51.82,60.09,33.75,35.7
"2016-02-02 19:10:00",220784,0.282,240.6,-7.92,83.8,0,0,864.3024,0,31.49,2.908,193,1.322,1.931,0,0,51.82,60.09,33.75,35.7
"2016-02-02 19:20:00",220785,0.136,226.5,-8.1,85,0,0,864.3044,0,31.71,2.906,180,1.326,1.93,0,0,51.82,60.09,33.75,35.7
"2016-02-02 19:30:00",220786,0.406,190.9,-8.12,83.7,0,0,864.3255,0,31.51,2.909,192,1.326,1.903,0.06825834,0,51.82,60.09,33.75,35.7
"2016-02-02 19:40:00",220787,0.214,269.1,-8.3,84.9,0,0,864.3044,0,31.51,2.909,171,1.326,1.907,0.0758426,0,51.82,60.09,33.75,35.7
"2016-02-02 19:50:00",220788,0.216,202.1,-8.34,84.8,0,0,864.3024,0,31.65,2.909,180,1.326,1.885,0.06067409,0,51.82,60.09,33.75,35.7
"2016-02-02 20:00:00",220789,0.126,249.6,-8.54,84.9,0,0,864.3107,0,31.8,2.908,183,1.326,1.878,0,0,51.88,60.09,33.76,35.7
"2016-02-02 20:10:00",220790,0.676,283.8,-8.44,85.1,0,0,864.4456,0,31.63,2.908,183,1.326,1.882,0.4512635,0,51.82,60.09,33.75,35.7
"2016-02-02 20:20:00",220791,0.399,194.2,-8.75,84.4,0,0,864.4056,0,31.48,2.915,178,1.326,1.874,0.1554773,0,51.82,60.09,33.75,35.7
"2016-02-02 20:30:00",220792,0.577,181.8,-9.3,88.2,0,0,864.4352,0,31.58,2.913,174,1.316,1.88,0.00379213,0,51.82,60.09,33.75,35.7
"2016-02-02 20:40:00",220793,0.509,172.5,-9.09,87.6,0,0,864.4815,0,31.29,2.916,178,1.314,1.879,0.117556,0,51.82,60.09,33.75,35.7
"2016-02-02 20:50:00",220794,0.185,190.9,-9.16,87.7,0,0,864.5553,0,31.44,2.914,184,1.292,1.879,0.01516852,0,51.82,60.09,33.75,35.7
"2016-02-02 21:00:00",220795,0.194,68.41,-9.29,88,0,0,864.5532,0,31.43,2.916,192,1.248,1.878,0.01137639,0,51.82,60.09,33.75,35.7
"2016-02-02 21:10:00",220796,0.107,258.4,-9.34,88.2,0,0,864.511,0,31.33,2.917,188,1.211,1.855,0.06446622,0,51.88,60.09,33.76,35.7
"2016-02-02 21:20:00",220797,0.17,189.2,-9.68,88.6,0,0,864.5602,0,31.52,2.917,192,1.211,1.864,0.03033707,0,51.77,60.09,33.73,35.7
"2016-02-02 21:30:00",220798,0.127,223.4,-9.46,87.7,0,0,864.5638,0,31.57,2.914,184,1.23,1.849,0.3337179,0,51.77,60.09,33.73,35.7
"2016-02-02 21:40:00",220799,0.399,295.1,-8.99,85.9,0,0,864.5689,0,31.67,2.909,188,1.251,1.854,0.8874103,0,51.82,60.09,33.75,35.7
"2016-02-02 21:50:00",220800,0.478,346,-8.61,84.8,0,0,864.567,0,31.82,2.908,187,1.23,1.845,1.080852,0,51.82,60.09,33.75,35.7
"2016-02-02 22:00:00",220801,0.43,292.8,-8.57,87.4,0,0,864.6066,0,31.34,2.913,192,1.253,1.898,0.9102755,0,51.77,60.03,33.73,35.69
"2016-02-02 22:10:00",220802,0.541,191.7,-8.72,87.4,0,0,864.624,0,31.11,2.916,175,1.299,1.904,0.3262058,0,51.82,60.09,33.75,35.7
"2016-02-02 22:20:00",220803,0.492,172.2,-8.81,88.9,0,0,864.6267,0,31.36,2.914,179,1.287,1.931,0.1137921,0,51.82,60.09,33.75,35.7
"2016-02-02 22:30:00",220804,0.658,186.1,-8.89,89.7,0,0,864.6066,0,31.31,2.915,185,1.277,1.951,0,0,51.77,60.09,33.73,35.7
"2016-02-02 22:40:00",220805,0.398,172.8,-8.93,89,0,0,864.5392,0,31.21,2.916,188,1.259,1.948,0,0,51.82,60.03,33.75,35.69
"2016-02-02 22:50:00",220806,0.615,210.9,-8.97,88,0,0,864.3763,0,31.24,2.916,193,1.251,1.923,0,0,51.82,60.03,33.75,35.69
"2016-02-02 23:00:00",220807,0.42,174.2,-9.33,88.5,0,0,864.376,0,31.25,2.918,189,1.256,1.873,0,0,51.82,60.03,33.75,35.69
"2016-02-02 23:10:00",220808,0.609,188.6,-9.44,88.5,0,0,864.5375,0,31.24,2.918,187,1.261,1.884,0,0,51.77,60.03,33.73,35.69
"2016-02-02 23:20:00",220809,0.687,182.5,-9.4,87.1,0,0,864.5641,0,31.14,2.919,189,1.279,1.897,0.04172514,0,51.77,60.09,33.73,35.7
"2016-02-02 23:30:00",220810,0.625,190.9,-9.54,85.8,0,0,864.4084,0,31.41,2.917,181,1.306,1.92,0.01137971,0,51.77,60.03,33.73,35.69
"2016-02-02 23:40:00",220811,0.454,175,-9.83,85,0,0,864.4075,0,31.12,2.923,180,1.32,1.926,0.01137992,0,51.77,60.03,33.73,35.69
"2016-02-02 23:50:00",220812,0.326,169.2,-10.16,86.5,0,0,864.4303,0,31.11,2.925,184,1.319,1.925,0.003793297,0,51.77,60.03,33.73,35.69
